Probability
0 0 0 0 0 0 0 0 0 0 0 0 0 0 0 0 0 0 0 0 0 3 6 16 35 65 74 61 68 58 71 39 39 39 29 13 10 0 0 0 0 0 0 0
0 0 0 0 0 0 0 0 0 0 0 0 0 0 0 0 0 0 0 0 0 0 0 23 42 65 77 61 71 65 61 61 48 32 23 10 0 0 0 0 0 0 0 0
0 0 0 0 0 0 0 0 0 0 0 0 0 0 0 0 0 0 0 3 0 0 6 29 42 52 68 71 74 71 65 65 55 29 10 0 0 0 0 0 0 0 0 0
0 0 0 0 0 0 0 0 0 0 0 0 0 0 0 0 0 0 0 0 3 6 23 42 61 61 68 68 68 61 52 48 35 13 6 0 0 0 0 0 0 0 0 0
0 0 0 0 0 0 0 0 0 0 0 0 0 0 0 0 0 0 0 3 3 13 29 52 55 68 61 61 48 45 26 16 10 6 3 0 0 0 0 0 0 0 0 0
0 0 0 0 0 0 0 0 0 0 0 0 0 0 0 0 0 0 10 23 23 32 58 68 65 65 68 48 35 26 13 6 3 0 0 0 0 0 0 0 0 0 0 0
0 0 0 0 0 0 0 0 0 0 0 0 0 0 0 0 3 10 26 45 55 84 84 87 84 74 55 35 13 6 3 3 0 0 0 0 0 0 0 0 0 0 0 0
0 0 0 0 0 0 0 0 0 0 0 0 0 0 0 3 29 42 58 74 87 77 77 68 55 42 19 13 6 0 0 0 0 0 0 0 0 0 0 0 0 0 0 0
0 0 0 0 0 0 0 0 0 0 0 0 0 0 0 13 39 68 81 71 68 58 32 26 19 10 6 0 0 0 0 0 0 0 0 0 0 0 0 0 0 0 0 0
0 0 0 0 0 0 0 0 0 0 0 0 0 0 0 13 58 71 71 65 32 23 10 3 0 0 0 0 0 0 0 0 0 0 0 0 0 0 0 0 0 0 0 0
0 0 0 0 0 0 0 0 0 0 0 0 0 0 0 26 65 61 58 29 10 0 0 0 0 0 0 0 0 0 0 0 0 0 0 0 0 0 0 0 0 0 0 0
0 0 0 0 0 0 0 0 0 0 0 0 0 0 0 16 29 48 39 10 0 0 0 0 0 0 0 0 0 0 0 0 0 0 0 0 0 0 0 0 0 0 0 0
0 0 0 0 0 0 0 0 0 0 0 0 0 0 0 13 10 19 10 6 0 0 0 0 0 0 0 0 0 0 0 0 0 0 0 0 0 0 0 0 0 0 0 0
0 0 0 0 0 0 0 0 0 0 0 0 0 0 0 6 6 0 0 0 0 0 0 0 0 0 0 0 0 0 0 0 0 0 0 0 0 0 0 0 0 0 0 0
0 0 0 0 0 0 0 0 0 0 0 0 0 0 0 3 0 0 0 0 0 0 0 0 0 0 0 0 0 0 0 0 0 0 0 0 0 0 0 0 0 0 0 0
0 0 0 0 0 0 0 0 0 0 0 0 0 0 0 0 0 0 0 0 0 0 0 0 0 0 0 0 0 0 0 0 0 0 0 0 0 0 0 0 0 0 0 0
0 0 0 0 0 0 0 0 0 0 0 0 0 0 0 0 0 0 0 0 0 0 0 0 0 0 0 0 0 0 0 0 0 0 0 0 0 0 0 0 0 0 0 0
0 0 0 0 0 0 0 0 0 0 0 0 0 0 0 0 0 0 0 0 0 0 0 0 0 0 0 0 0 0 0 0 0 0 0 0 0 0 0 0 0 0 0 0
0 0 0 0 0 0 0 0 0 0 0 0 0 0 0 0 0 0 0 0 0 0 0 0 0 0 0 0 0 0 0 0 0 0 0 0 0 0 0 0 0 0 0 0
0 0 0 0 0 0 0 0 0 0 0 0 0 0 0 0 0 0 0 0 0 0 0 0 0 0 0 0 0 0 0 0 0 0 0 0 0 0 0 0 0 0 0 0
0 0 0 0 0 0 0 0 0 0 0 0 0 0 0 0 0 0 0 0 0 0 0 0 0 0 0 0 0 0 0 0 0 0 0 0 0 0 0 0 0 0 0 0
0 0 0 0 0 0 0 0 0 0 0 0 0 0 0 0 0 0 0 0 0 0 0 0 0 0 0 0 0 0 0 0 0 0 0 0 0 0 0 0 0 0 0 0
0 0 0 0 0 0 0 0 0 0 0 0 0 0 0 0 0 0 0 0 0 0 0 0 0 0 0 0 0 0 0 0 0 0 0 0 0 0 0 0 0 0 0 0
0 0 0 0 0 0 0 0 0 0 0 0 0 0 0 0 0 0 0 0 0 0 0 0 0 0 0 0 0 0 0 0 0 0 0 0 0 0 0 0 0 0 0 0
0 0 0 0 0 0 0 0 0 0 0 0 0 0 0 0 0 0 0 0 0 0 0 0 0 0 0 0 0 0 0 0 0 0 0 0 0 0 0 0 0 0 0 0
0 0 0 0 0 0 0 0 0 0 0 0 0 0 0 0 0 0 0 0 0 0 0 0 0 0 0 0 0 0 0 0 0 0 0 0 0 0 0 0 0 0 0 0
Height
5823 5827 5832 5837 5840 5844 5845 5846 5849 5855 5857 5855 5855 5856 5860 5863 5864 5864 5864 5864 5864 5864 5864 5863 5861 5861 5860 5860 5860 5859 5858 5855 5852 5849 5848 5845 5844 5843 5842 5840 5837 5835 5833 5831
5817 5822 5828 5830 5832 5835 5837 5839 5843 5847 5851 5850 5849 5850 5853 5855 5857 5859 5860 5860 5859 5858 5858 5857 5856 5854 5853 5853 5853 5852 5852 5849 5845 5843 5840 5836 5834 5833 5832 5831 5829 5826 5824 5822
5812 5819 5820 5822 5825 5828 5831 5835 5838 5841 5844 5843 5843 5844 5847 5849 5851 5853 5855 5855 5855 5854 5852 5851 5850 5849 5848 5847 5846 5846 5845 5842 5838 5834 5831 5826 5825 5825 5824 5822 5820 5817 5815 5814
5805 5810 5812 5815 5819 5822 5826 5830 5832 5834 5836 5837 5838 5837 5842 5844 5845 5847 5848 5849 5849 5849 5847 5846 5845 5844 5843 5841 5840 5839 5837 5834 5830 5824 5821 5817 5816 5817 5816 5814 5812 5810 5807 5805
5800 5804 5807 5810 5815 5817 5820 5824 5826 5828 5829 5831 5833 5833 5837 5840 5840 5841 5842 5842 5842 5842 5841 5841 5840 5839 5837 5835 5833 5832 5830 5827 5822 5816 5812 5810 5809 5809 5808 5807 5805 5802 5800 5798
5794 5797 5800 5804 5808 5811 5815 5818 5821 5822 5823 5825 5829 5829 5831 5834 5833 5832 5833 5834 5834 5834 5834 5834 5834 5832 5831 5829 5827 5825 5822 5819 5814 5808 5804 5803 5803 5802 5802 5801 5799 5796 5793 5790
5789 5792 5795 5799 5802 5805 5810 5813 5816 5817 5818 5821 5824 5823 5825 5825 5824 5824 5824 5825 5825 5826 5826 5826 5826 5825 5823 5821 5819 5816 5814 5811 5808 5803 5800 5798 5798 5797 5796 5794 5792 5789 5785 5781
5784 5789 5793 5796 5799 5802 5805 5808 5811 5813 5814 5816 5818 5818 5820 5818 5818 5819 5819 5818 5818 5818 5818 5818 5818 5817 5815 5813 5810 5808 5806 5804 5801 5798 5795 5793 5791 5790 5788 5786 5783 5779 5775 5771
5781 5786 5791 5793 5796 5798 5800 5802 5806 5808 5809 5810 5812 5814 5814 5813 5813 5813 5812 5812 5812 5812 5812 5811 5810 5809 5807 5804 5801 5799 5797 5796 5794 5791 5789 5786 5784 5781 5779 5775 5772 5768 5764 5760
5776 5782 5786 5789 5790 5792 5794 5798 5800 5801 5802 5803 5806 5807 5807 5807 5807 5807 5806 5806 5806 5806 5806 5805 5804 5802 5799 5797 5794 5792 5789 5787 5785 5783 5781 5778 5775 5771 5768 5765 5760 5756 5752 5748
5769 5774 5780 5783 5785 5785 5788 5791 5792 5794 5795 5797 5799 5802 5799 5800 5801 5801 5801 5800 5799 5799 5798 5797 5795 5793 5791 5788 5785 5782 5780 5777 5776 5774 5771 5768 5764 5761 5757 5753 5748 5744 5739 5735
5763 5767 5772 5777 5779 5780 5781 5782 5783 5785 5787 5790 5791 5793 5790 5791 5792 5793 5794 5793 5792 5790 5789 5788 5787 5785 5782 5779 5776 5774 5771 5768 5767 5765 5761 5758 5754 5750 5745 5741 5736 5731 5726 5722
5756 5760 5765 5771 5775 5774 5773 5774 5775 5777 5779 5780 5782 5784 5782 5783 5784 5785 5785 5784 5783 5781 5780 5779 5777 5775 5773 5770 5767 5765 5762 5759 5757 5754 5751 5746 5742 5738 5733 5728 5723 5718 5713 5708
5751 5754 5758 5763 5765 5766 5767 5767 5768 5769 5770 5772 5774 5775 5775 5776 5776 5777 5776 5775 5774 5772 5770 5768 5767 5765 5763 5760 5757 5754 5752 5749 5746 5742 5738 5733 5729 5724 5719 5714 5709 5704 5699 5694
5746 5748 5751 5754 5758 5760 5761 5761 5761 5761 5762 5765 5767 5768 5769 5769 5769 5768 5767 5766 5764 5763 5760 5757 5755 5754 5752 5750 5747 5743 5740 5736 5732 5728 5724 5720 5715 5710 5705 5700 5694 5689 5684 5679
5738 5741 5744 5746 5749 5753 5753 5752 5752 5753 5755 5757 5759 5760 5761 5761 5760 5759 5757 5755 5753 5752 5749 5747 5745 5743 5741 5738 5735 5731 5727 5723 5718 5714 5709 5705 5700 5695 5690 5685 5679 5674 5670 5665
5729 5732 5736 5737 5739 5742 5742 5742 5743 5745 5747 5750 5751 5751 5751 5751 5751 5748 5746 5744 5742 5740 5738 5736 5734 5731 5728 5725 5721 5718 5713 5709 5704 5699 5695 5690 5685 5680 5675 5670 5665 5661 5656 5651
5719 5722 5725 5728 5731 5732 5731 5731 5733 5736 5738 5740 5741 5741 5740 5740 5739 5737 5735 5733 5731 5729 5727 5724 5721 5718 5715 5712 5708 5703 5699 5694 5690 5685 5680 5675 5670 5666 5661 5657 5652 5648 5643 5638
5710 5713 5715 5718 5720 5722 5722 5722 5724 5726 5727 5729 5730 5730 5729 5729 5729 5727 5725 5723 5720 5718 5715 5712 5709 5706 5702 5698 5694 5690 5685 5681 5676 5671 5667 5662 5658 5653 5649 5644 5640 5635 5630 5625
5703 5705 5707 5708 5711 5713 5715 5715 5715 5718 5718 5720 5719 5719 5719 5718 5718 5717 5714 5712 5710 5707 5705 5702 5698 5695 5691 5687 5682 5678 5673 5668 5664 5659 5655 5650 5646 5642 5637 5633 5628 5623 5618 5613
5696 5697 5699 5700 5702 5704 5707 5707 5708 5710 5711 5710 5709 5709 5708 5708 5707 5706 5704 5702 5700 5697 5694 5691 5688 5684 5680 5675 5671 5666 5662 5657 5653 5648 5644 5639 5635 5630 5626 5621 5616 5611 5607 5602
5690 5691 5692 5694 5696 5699 5699 5699 5701 5701 5701 5700 5700 5700 5699 5699 5697 5696 5694 5692 5689 5687 5684 5681 5677 5673 5669 5665 5661 5656 5652 5647 5643 5638 5634 5629 5625 5620 5615 5611 5606 5601 5597 5592
5684 5686 5687 5689 5691 5691 5691 5692 5692 5692 5692 5692 5692 5691 5691 5690 5688 5687 5685 5683 5680 5678 5674 5671 5667 5663 5659 5656 5651 5647 5643 5638 5633 5629 5624 5619 5615 5610 5606 5601 5596 5592 5587 5582
5680 5680 5681 5682 5683 5684 5684 5684 5684 5685 5685 5684 5683 5683 5682 5681 5679 5678 5676 5674 5671 5668 5665 5662 5658 5655 5651 5647 5643 5639 5635 5630 5625 5620 5615 5610 5606 5601 5596 5592 5587 5583 5579 5575
5676 5676 5676 5676 5677 5677 5677 5677 5677 5677 5677 5676 5675 5675 5673 5672 5671 5669 5667 5665 5663 5660 5658 5655 5651 5648 5645 5641 5637 5632 5628 5623 5618 5613 5608 5602 5597 5592 5588 5583 5580 5576 5572 5569
5671 5672 5672 5672 5671 5671 5671 5670 5670 5670 5669 5669 5668 5667 5666 5665 5664 5662 5660 5659 5657 5655 5652 5649 5646 5643 5639 5635 5631 5626 5621 5616 5611 5605 5600 5594 5589 5585 5580 5577 5573 5570 5567 5564
Wind_Speed
33 33 30 28 28 28 31 33 32 29 27 29 27 23 19 19 23 25 26 27 28 31 34 36 38 38 37 36 36 36 36 38 40 40 40 38 35 35 34 34 35 36 36 36
34 31 26 28 30 30 32 33 32 29 29 31 30 28 25 24 24 25 27 29 31 34 36 38 39 40 39 39 39 38 39 41 43 44 43 41 38 36 35 35 37 38 39 39
31 25 29 31 31 30 29 30 29 29 29 32 33 32 27 25 24 26 28 30 33 36 37 38 39 40 40 40 40 40 42 44 46 47 45 41 38 36 36 37 37 38 39 40
29 29 31 31 31 29 25 24 25 27 30 32 33 35 29 27 27 28 28 30 34 36 37 37 38 38 38 39 41 42 44 47 48 48 45 40 36 34 35 37 37 38 40 41
27 29 30 30 27 25 22 19 20 23 27 31 33 36 31 29 32 34 34 35 36 37 37 37 37 36 37 39 41 44 46 48 49 48 43 39 36 34 35 37 39 41 41 42
26 31 33 31 27 22 18 18 22 25 28 28 24 28 25 22 28 35 40 40 40 38 38 36 35 35 36 39 42 45 47 48 48 47 43 42 40 38 39 41 42 44 45 45
27 31 33 32 28 23 20 22 24 26 26 21 16 19 15 16 23 29 33 34 35 34 33 32 32 34 37 40 43 45 47 47 48 46 44 44 44 43 43 44 44 45 46 46
26 29 29 28 25 21 22 23 24 23 20 16 17 17 13 17 19 21 23 25 26 28 29 30 32 35 38 41 43 45 45 45 45 45 45 44 44 44 45 46 46 47 47 48
26 26 26 25 23 22 23 23 22 22 21 20 20 18 17 19 20 21 22 23 25 27 29 32 35 37 41 43 44 43 44 44 43 42 42 42 44 45 47 48 49 50 51 52
24 26 27 27 26 27 26 23 24 25 25 25 22 20 22 24 26 28 28 28 29 30 32 35 38 41 44 45 46 45 44 41 39 39 40 43 45 47 49 51 52 53 54 54
28 30 31 29 25 25 27 28 28 27 26 26 25 25 25 26 28 29 31 32 33 34 36 38 41 44 45 45 46 46 43 38 37 39 41 44 47 50 53 54 56 57 58 58
31 32 34 32 27 25 27 31 33 32 29 26 25 28 31 31 31 31 32 34 35 37 38 40 42 43 45 46 47 46 42 37 37 40 43 47 51 54 56 57 59 60 61 62
33 34 34 34 31 30 30 30 32 32 31 30 30 32 34 34 35 35 36 38 41 43 44 44 44 44 45 46 47 46 43 42 41 43 47 51 54 56 58 60 62 63 64 65
36 37 36 37 38 37 34 31 30 30 31 32 33 35 36 38 39 39 39 41 43 45 46 44 42 42 43 45 47 47 47 47 47 49 51 53 55 58 60 62 63 64 64 64
37 39 39 38 39 41 40 38 36 35 36 36 37 39 41 43 44 44 45 45 46 47 45 41 40 43 47 51 53 55 54 54 54 54 54 54 56 57 59 60 61 61 61 60
40 39 39 39 39 40 43 45 45 42 40 42 44 47 48 48 48 49 49 49 49 48 48 47 48 51 54 55 56 57 57 57 56 56 55 55 56 56 56 57 57 57 57 57
44 43 42 41 40 40 44 46 48 48 47 47 48 50 50 50 50 50 49 49 49 51 53 54 56 57 56 56 56 56 56 55 55 54 54 53 53 52 52 53 54 54 53 54
41 42 41 40 39 37 39 42 45 46 48 49 51 52 53 53 53 53 54 55 56 57 58 57 56 55 55 55 54 54 54 53 53 52 51 50 49 49 49 50 50 50 51 52
36 37 37 36 36 35 33 35 38 39 41 43 46 48 50 52 52 52 53 54 54 54 53 53 52 53 53 53 53 53 52 51 49 47 45 44 44 45 46 47 48 49 49 50
32 33 34 34 34 34 33 33 35 36 38 39 41 42 44 44 45 46 47 48 48 49 49 50 50 50 51 51 51 50 48 46 43 42 41 41 42 43 44 45 46 46 46 44
25 27 29 29 30 31 30 30 30 33 34 35 37 39 40 42 42 43 44 45 45 46 47 47 47 48 47 47 46 44 42 40 39 38 39 40 40 41 42 41 41 41 40 40
20 20 22 23 24 25 24 25 26 27 29 32 34 35 37 38 40 41 42 43 43 43 43 44 44 43 42 41 39 38 37 36 36 36 37 37 37 37 37 37 38 38 38 38
19 19 19 20 21 22 23 24 24 25 26 28 30 32 34 36 37 38 39 39 39 39 40 40 38 37 36 35 34 33 33 33 33 33 33 33 34 35 36 36 36 35 34 33
18 18 19 20 21 22 23 23 24 25 26 27 29 30 32 32 33 34 34 34 34 34 33 32 31 30 29 29 29 29 29 29 30 31 32 34 35 35 34 34 33 31 29 28
17 18 19 20 20 21 22 23 24 25 26 27 28 29 29 29 29 29 29 28 27 26 25 24 24 24 24 24 25 26 27 29 30 31 32 33 33 32 31 29 27 25 24 22
15 16 17 19 21 22 23 24 25 25 25 25 25 25 25 24 23 22 21 20 20 19 18 18 18 19 20 22 24 26 28 29 30 31 31 30 29 27 25 23 22 20 19 18
Wind_Direction
227 228 229 231 233 232 233 235 235 233 229 234 235 236 232 229 233 239 251 263 273 280 285 287 290 293 297 300 304 307 308 306 304 301 299 297 293 290 288 286 287 289 290 292
229 230 229 229 229 229 231 234 234 230 227 236 238 239 239 235 236 238 248 259 269 278 282 286 290 293 296 298 301 303 304 303 301 299 297 291 289 287 283 283 285 285 285 288
230 227 227 227 228 228 232 236 236 231 223 231 239 242 242 243 244 243 246 255 264 273 278 283 288 291 293 295 297 298 298 297 296 293 290 285 284 285 283 284 284 287 289 290
223 219 223 225 225 223 224 230 233 231 227 228 238 245 241 240 241 242 245 253 259 265 272 279 284 287 289 290 291 292 293 293 292 288 289 285 285 287 289 290 289 290 291 293
221 217 219 221 220 222 216 217 228 236 240 239 237 247 248 241 241 243 246 252 259 262 265 271 277 282 285 285 286 287 288 289 289 289 290 291 293 295 294 294 293 293 296 298
214 213 214 212 210 212 214 224 234 241 246 249 247 250 250 243 243 243 245 251 255 257 261 265 271 277 280 280 279 281 283 286 287 290 293 298 299 298 296 294 294 295 296 295
212 214 215 211 207 204 211 227 238 244 247 249 245 246 243 239 239 242 244 248 251 253 256 259 265 270 273 274 274 277 281 284 287 292 296 297 297 295 294 293 293 294 294 294
213 215 215 213 211 208 215 229 238 245 247 242 227 233 245 247 247 248 252 254 254 253 254 256 260 263 265 267 270 274 279 283 287 292 294 294 293 292 293 293 292 293 293 293
214 210 206 205 206 217 225 232 241 248 247 244 233 235 251 256 260 263 265 267 265 262 260 261 263 264 266 268 271 275 278 282 286 289 292 291 291 292 292 291 291 291 291 292
216 210 203 206 213 220 227 233 242 246 249 250 247 246 248 249 253 257 263 268 270 270 270 269 270 270 270 272 273 277 277 278 282 285 288 290 290 290 291 290 291 291 291 291
217 214 206 209 219 229 226 229 236 243 247 250 254 254 253 252 251 253 256 261 265 268 269 270 272 275 277 279 280 280 276 275 281 285 287 289 289 289 289 289 288 289 289 291
222 221 215 211 218 229 230 230 230 234 237 242 250 254 253 254 254 255 257 260 264 268 270 272 274 275 278 279 282 286 282 278 282 284 286 287 287 287 287 287 287 288 289 291
225 226 224 216 218 223 227 229 232 233 234 237 240 247 254 257 258 260 263 266 268 271 273 275 276 276 279 283 286 287 287 288 286 286 287 287 286 286 286 286 286 287 288 290
228 230 230 225 222 225 228 228 233 236 238 239 242 249 258 262 263 264 265 267 269 271 272 273 275 279 283 285 289 291 292 292 291 290 288 287 286 285 285 285 285 286 288 290
236 235 236 235 231 231 236 239 243 245 247 249 252 256 261 265 267 267 267 269 271 272 274 277 281 285 286 288 291 292 293 292 293 292 290 288 286 285 285 285 286 287 289 290
242 242 242 244 243 242 243 247 251 254 256 258 260 263 265 266 267 267 267 267 270 272 276 282 286 288 289 290 290 290 291 292 292 292 290 289 288 287 287 288 288 289 291 292
248 249 249 252 253 252 250 250 252 254 255 258 260 262 264 264 265 268 270 272 275 279 283 287 288 289 289 290 290 290 291 291 291 291 290 290 290 289 289 289 290 292 293 295
250 251 253 253 253 254 254 253 252 253 253 254 255 257 260 264 267 271 275 279 282 284 286 287 288 289 290 290 291 291 292 292 292 292 292 291 290 289 289 290 292 294 295 296
246 250 251 251 250 251 251 253 254 254 255 255 256 258 261 264 268 272 275 277 280 282 285 287 289 290 291 292 292 293 293 293 294 294 293 291 290 290 290 292 293 295 295 297
246 248 250 252 253 254 255 255 256 257 258 259 261 262 265 267 270 273 275 277 280 282 285 287 289 290 290 291 292 293 294 294 293 293 292 291 291 292 292 293 294 296 297 298
249 250 251 254 256 258 259 261 260 259 261 262 263 265 268 270 272 275 277 280 282 284 286 287 288 289 291 292 293 294 295 295 294 293 293 294 294 295 296 296 298 300 300 301
249 252 251 252 258 262 263 265 265 266 264 264 265 267 269 271 274 276 278 281 283 285 286 288 289 290 292 293 294 295 296 295 295 295 295 296 297 298 299 300 301 302 302 303
256 258 260 263 267 267 267 269 270 269 269 270 270 271 272 273 275 277 280 282 284 286 288 289 291 292 293 295 296 296 297 297 298 298 299 301 302 302 303 303 304 304 304 304
264 265 267 268 270 270 271 271 272 274 275 276 276 277 278 279 281 282 284 285 286 288 290 291 292 294 295 297 297 298 300 302 303 305 305 305 305 305 305 305 304 304 304 304
261 264 268 271 271 271 271 273 274 275 276 277 278 280 282 284 286 287 287 287 289 292 294 295 296 297 299 301 303 306 309 310 310 309 308 307 307 306 305 304 303 304 304 306
265 266 267 268 270 273 275 277 278 279 278 279 280 282 284 287 290 291 290 291 293 296 298 301 304 306 309 312 314 315 315 314 313 312 310 309 308 307 306 305 305 306 308 310